Station Historical Data
Daily Summary for June 26, 2017 Units:  Metric    English   Both
« Previous Day
Next Day »
Daily Weekly Monthly Yearly Custom
  High: Low: Average:
Temperature: 22.1 °C 13.4 °C 18.1 °C
Dew Point: 14.2 °C 8.3 °C 11.7 °C
Humidity: 76% 54% 67%
Wind Speed: 27.4km/h 0km/h 8.7km/h
Wind Gust: 38.6km/h - -
Wind- - WSW
Pressure: 1015.5 hPa 1013.1 hPa -
Precipitation: 0 mm    
Historical Graphs
 
 
Tabular Data for June 26, 2017
Time Temperature Dew Point Pressure Wind Wind Speed Wind Gust Humidity Rainfall Rate (Hourly)
00:04 17.9 °C 11.2 °C 1015.1 hPa WSW 6.4 km/h 14.5 km/h 65% 0 mm
00:09 17.8 °C 11.2 °C 1015.1 hPa WNW 8 km/h 11.3 km/h 65% 0 mm
00:14 17.8 °C 11.1 °C 1015.1 hPa WSW 4.8 km/h 14.5 km/h 65% 0 mm
00:19 17.8 °C 10.9 °C 1015.1 hPa West 6.4 km/h 12.9 km/h 64% 0 mm
00:24 17.7 °C 11 °C 1015.1 hPa NW 12.9 km/h 12.9 km/h 65% 0 mm
00:29 17.7 °C 10.8 °C 1015.1 hPa WSW 6.4 km/h 12.9 km/h 64% 0 mm
00:34 17.7 °C 10.8 °C 1015.1 hPa WNW 4.8 km/h 11.3 km/h 64% 0 mm
00:39 17.6 °C 10.9 °C 1015.1 hPa WSW 8 km/h 9.7 km/h 65% 0 mm
00:44 17.6 °C 10.9 °C 1015.1 hPa West 4.8 km/h 12.9 km/h 65% 0 mm
00:49 17.5 °C 10.8 °C 1015.1 hPa West 4.8 km/h 12.9 km/h 65% 0 mm
00:54 17.4 °C 10.9 °C 1015.1 hPa West 4.8 km/h 9.7 km/h 66% 0 mm
00:59 17.4 °C 11.2 °C 1015.1 hPa West 3.2 km/h 9.7 km/h 67% 0 mm
01:04 17.4 °C 11.4 °C 1015.1 hPa West 4.8 km/h 9.7 km/h 68% 0 mm
01:09 17.4 °C 11.7 °C 1015.1 hPa West 4.8 km/h 9.7 km/h 69% 0 mm
01:14 17.3 °C 11.6 °C 1015.1 hPa West 1.6 km/h 6.4 km/h 69% 0 mm
01:19 17.4 °C 11.7 °C 1015.1 hPa WSW 6.4 km/h 11.3 km/h 69% 0 mm
01:24 17.4 °C 11.7 °C 1015.1 hPa WSW 6.4 km/h 11.3 km/h 69% 0 mm
01:29 17.3 °C 11.8 °C 1015.1 hPa West 9.7 km/h 11.3 km/h 70% 0 mm
01:34 17.3 °C 11.8 °C 1014.8 hPa WNW 1.6 km/h 9.7 km/h 70% 0 mm
01:39 17.3 °C 11.6 °C 1014.8 hPa West 4.8 km/h 11.3 km/h 69% 0 mm
01:44 17.3 °C 11.6 °C 1014.8 hPa West 6.4 km/h 12.9 km/h 69% 0 mm
01:45 17.3 °C 11.6 °C 1014.8 hPa WSW 4.8 km/h 12.9 km/h 69% 0 mm
01:54 17.2 °C 11.4 °C 1014.8 hPa West 4.8 km/h 11.3 km/h 69% 0 mm
01:59 17.1 °C 11.4 °C 1014.8 hPa WSW 4.8 km/h 9.7 km/h 69% 0 mm
02:04 17.1 °C 11.3 °C 1014.8 hPa WNW 6.4 km/h 11.3 km/h 69% 0 mm
02:09 17 °C 11.3 °C 1014.8 hPa WSW 8 km/h 9.7 km/h 69% 0 mm
02:14 16.9 °C 11.4 °C 1014.8 hPa NW 8 km/h 11.3 km/h 70% 0 mm
02:19 16.8 °C 11.3 °C 1014.8 hPa West 4.8 km/h 11.3 km/h 70% 0 mm
02:24 16.7 °C 11.2 °C 1014.8 hPa West 4.8 km/h 12.9 km/h 70% 0 mm
02:29 16.6 °C 11.1 °C 1014.8 hPa West 3.2 km/h 8 km/h 70% 0 mm
02:34 16.4 °C 11.1 °C 1014.4 hPa SW 1.6 km/h 6.4 km/h 71% 0 mm
02:39 16.4 °C 11.1 °C 1014.4 hPa WSW 3.2 km/h 6.4 km/h 71% 0 mm
02:44 16.3 °C 11.1 °C 1014.4 hPa Calm   4.8 km/h 71% 0 mm
02:49 16.3 °C 11.1 °C 1014.4 hPa WSW 1.6 km/h 8 km/h 71% 0 mm
02:54 16.4 °C 10.9 °C 1014.4 hPa WSW 4.8 km/h 6.4 km/h 70% 0 mm
02:59 16.4 °C 10.9 °C 1014.4 hPa WSW 4.8 km/h 9.7 km/h 70% 0 mm
03:04 16.4 °C 10.9 °C 1014.4 hPa Calm   6.4 km/h 70% 0 mm
03:09 16.4 °C 10.9 °C 1014.4 hPa WSW 1.6 km/h 4.8 km/h 70% 0 mm
03:14 16.4 °C 10.9 °C 1014.4 hPa WSW 3.2 km/h 8 km/h 70% 0 mm
03:19 16.5 °C 11 °C 1014.4 hPa WSW 3.2 km/h 9.7 km/h 70% 0 mm
03:24 16.6 °C 11.1 °C 1014.4 hPa WSW 3.2 km/h 9.7 km/h 70% 0 mm
03:29 16.6 °C 11.1 °C 1014.4 hPa WSW 3.2 km/h 8 km/h 70% 0 mm
03:34 16.6 °C 11.3 °C 1014.4 hPa West 4.8 km/h 9.7 km/h 71% 0 mm
03:39 16.5 °C 11.2 °C 1014.4 hPa WNW 4.8 km/h 9.7 km/h 71% 0 mm
03:44 16.5 °C 11.2 °C 1014.1 hPa WNW 4.8 km/h 8 km/h 71% 0 mm
03:49 16.4 °C 11.2 °C 1014.1 hPa West 3.2 km/h 9.7 km/h 71% 0 mm
03:54 16.4 °C 11.2 °C 1014.1 hPa WNW 1.6 km/h 8 km/h 71% 0 mm
03:59 16.3 °C 11.1 °C 1014.4 hPa WNW 3.2 km/h 6.4 km/h 71% 0 mm
04:04 16.3 °C 11.2 °C 1014.4 hPa WNW 3.2 km/h 8 km/h 72% 0 mm
04:09 16.2 °C 11.1 °C 1014.4 hPa WNW 1.6 km/h 6.4 km/h 72% 0 mm
04:14 16.1 °C 11.2 °C 1014.4 hPa West 3.2 km/h 8 km/h 73% 0 mm
04:19 16 °C 11.2 °C 1014.4 hPa West 4.8 km/h 11.3 km/h 73% 0 mm
04:24 15.9 °C 11.1 °C 1014.4 hPa West 6.4 km/h 12.9 km/h 73% 0 mm
04:29 15.9 °C 11.1 °C 1014.4 hPa West 4.8 km/h 12.9 km/h 73% 0 mm
04:34 15.8 °C 11.2 °C 1014.4 hPa West 4.8 km/h 9.7 km/h 74% 0 mm
04:39 15.7 °C 11.1 °C 1014.4 hPa West 8 km/h 11.3 km/h 74% 0 mm
04:44 15.6 °C 10.9 °C 1014.4 hPa West 6.4 km/h 11.3 km/h 74% 0 mm
04:49 15.4 °C 10.8 °C 1014.4 hPa West 4.8 km/h 11.3 km/h 74% 0 mm
04:54 15.3 °C 10.7 °C 1014.4 hPa West 4.8 km/h 8 km/h 74% 0 mm
04:59 15.3 °C 10.9 °C 1014.4 hPa West 4.8 km/h 9.7 km/h 75% 0 mm
05:04 15.3 °C 10.9 °C 1014.4 hPa WSW 3.2 km/h 9.7 km/h 75% 0 mm
05:09 15.2 °C 10.8 °C 1014.4 hPa West 3.2 km/h 6.4 km/h 75% 0 mm
05:14 15.1 °C 10.7 °C 1014.8 hPa West 3.2 km/h 8 km/h 75% 0 mm
05:19 15.1 °C 10.7 °C 1014.8 hPa West 3.2 km/h 8 km/h 75% 0 mm
05:24 15.1 °C 10.8 °C 1014.8 hPa WSW 1.6 km/h 9.7 km/h 76% 0 mm
05:29 14.9 °C 10.7 °C 1014.8 hPa West 3.2 km/h 9.7 km/h 76% 0 mm
05:34 15 °C 10.8 °C 1014.8 hPa West 1.6 km/h 6.4 km/h 76% 0 mm
05:39 15.1 °C 10.8 °C 1014.8 hPa WSW 1.6 km/h 8 km/h 76% 0 mm
05:44 15.1 °C 10.8 °C 1014.8 hPa WSW 1.6 km/h 8 km/h 76% 0 mm
05:49 15.2 °C 10.9 °C 1014.8 hPa WSW 3.2 km/h 9.7 km/h 76% 0 mm
05:54 15.3 °C 11.1 °C 1014.8 hPa WSW 3.2 km/h 9.7 km/h 76% 0 mm
05:59 15.4 °C 11.1 °C 1014.8 hPa WSW 4.8 km/h 9.7 km/h 75% 0 mm
06:04 15.6 °C 11.2 °C 1015.1 hPa WSW 4.8 km/h 11.3 km/h 75% 0 mm
06:09 15.7 °C 11.1 °C 1015.1 hPa WSW 9.7 km/h 9.7 km/h 74% 0 mm
06:14 15.8 °C 11.2 °C 1015.1 hPa WSW 4.8 km/h 12.9 km/h 74% 0 mm
06:19 15.8 °C 11 °C 1015.1 hPa WSW 4.8 km/h 12.9 km/h 73% 0 mm
06:24 15.9 °C 11.1 °C 1015.1 hPa West 6.4 km/h 16.1 km/h 73% 0 mm
06:29 16 °C 11.2 °C 1015.1 hPa WSW 11.3 km/h 12.9 km/h 73% 0 mm
06:34 16 °C 11.2 °C 1015.1 hPa West 9.7 km/h 11.3 km/h 73% 0 mm
06:39 16.1 °C 11.2 °C 1015.1 hPa West 3.2 km/h 11.3 km/h 73% 0 mm
06:44 16.2 °C 11.3 °C 1015.1 hPa West 4.8 km/h 11.3 km/h 73% 0 mm
06:49 16.2 °C 11.4 °C 1015.1 hPa West 4.8 km/h 14.5 km/h 73% 0 mm
06:54 16.2 °C 11.3 °C 1015.1 hPa West 6.4 km/h 14.5 km/h 73% 0 mm
06:59 16.2 °C 11.3 °C 1015.1 hPa West 6.4 km/h 14.5 km/h 73% 0 mm
07:04 16.2 °C 11.3 °C 1015.1 hPa West 8 km/h 16.1 km/h 73% 0 mm
07:09 16.3 °C 11.4 °C 1015.1 hPa WSW 6.4 km/h 11.3 km/h 73% 0 mm
07:14 16.6 °C 11.7 °C 1015.1 hPa West 4.8 km/h 17.7 km/h 73% 0 mm
07:19 16.5 °C 11.7 °C 1015.1 hPa West 6.4 km/h 17.7 km/h 73% 0 mm
07:24 16.4 °C 11.6 °C 1015.1 hPa West 8 km/h 16.1 km/h 73% 0 mm
07:29 16.4 °C 11.7 °C 1015.5 hPa SW 6.4 km/h 9.7 km/h 74% 0 mm
07:34 16.7 °C 12.1 °C 1015.5 hPa West 6.4 km/h 12.9 km/h 74% 0 mm
07:39 16.9 °C 12.1 °C 1015.1 hPa WNW 6.4 km/h 16.1 km/h 73% 0 mm
07:44 17 °C 12.1 °C 1015.1 hPa WSW 6.4 km/h 12.9 km/h 73% 0 mm
07:49 16.9 °C 12.3 °C 1015.5 hPa West 8 km/h 17.7 km/h 74% 0 mm
07:54 17.1 °C 12.2 °C 1015.5 hPa West 8 km/h 24.1 km/h 73% 0 mm
07:59 17.1 °C 12.2 °C 1015.5 hPa West 8 km/h 24.1 km/h 73% 0 mm
08:04 17.1 °C 12.2 °C 1015.5 hPa West 8 km/h 19.3 km/h 73% 0 mm
08:09 17.3 °C 12.4 °C 1015.1 hPa West 6.4 km/h 14.5 km/h 73% 0 mm
08:14 17.3 °C 12.4 °C 1015.1 hPa SW 9.7 km/h 16.1 km/h 73% 0 mm
08:19 17.5 °C 12.6 °C 1015.5 hPa West 4.8 km/h 14.5 km/h 73% 0 mm
08:24 17.7 °C 12.6 °C 1015.5 hPa SW 6.4 km/h 12.9 km/h 72% 0 mm
08:29 17.9 °C 12.6 °C 1015.5 hPa WSW 9.7 km/h 14.5 km/h 71% 0 mm
08:34 17.7 °C 12.4 °C 1015.5 hPa WNW 3.2 km/h 12.9 km/h 71% 0 mm
08:39 17.8 °C 12.4 °C 1015.5 hPa WNW 6.4 km/h 8 km/h 71% 0 mm
08:44 18.7 °C 12.7 °C 1015.5 hPa WSW 4.8 km/h 12.9 km/h 68% 0 mm
08:49 18.4 °C 12.2 °C 1015.5 hPa West 6.4 km/h 17.7 km/h 67% 0 mm
08:54 18.3 °C 12.5 °C 1015.5 hPa West 8 km/h 17.7 km/h 69% 0 mm
08:59 18.4 °C 12.6 °C 1015.5 hPa West 6.4 km/h 14.5 km/h 69% 0 mm
09:04 18.1 °C 12.1 °C 1015.5 hPa West 6.4 km/h 16.1 km/h 68% 0 mm
09:09 18.3 °C 12.6 °C 1015.5 hPa West 6.4 km/h 16.1 km/h 69% 0 mm
09:14 18.4 °C 12.7 °C 1015.5 hPa WNW 6.4 km/h 11.3 km/h 69% 0 mm
09:24 18 °C 12 °C 1015.5 hPa WSW 4.8 km/h 19.3 km/h 68% 0 mm
09:29 18.3 °C 12.8 °C 1015.5 hPa WSW 8 km/h 14.5 km/h 70% 0 mm
09:34 19.1 °C 12.6 °C 1015.5 hPa SW 12.9 km/h 14.5 km/h 66% 0 mm
09:39 18.9 °C 12.2 °C 1015.5 hPa WSW 6.4 km/h 16.1 km/h 65% 0 mm
09:44 19.3 °C 12.1 °C 1015.5 hPa West 14.5 km/h 19.3 km/h 63% 0 mm
09:49 19.2 °C 12.7 °C 1015.5 hPa WSW 9.7 km/h 19.3 km/h 66% 0 mm
09:54 19.1 °C 12.4 °C 1015.5 hPa WSW 8 km/h 19.3 km/h 65% 0 mm
09:59 18.8 °C 12.8 °C 1015.5 hPa WSW 8 km/h 20.9 km/h 68% 0 mm
10:04 19 °C 13.2 °C 1015.5 hPa South 12.9 km/h 17.7 km/h 69% 0 mm
10:09 18.8 °C 13 °C 1015.5 hPa WSW 9.7 km/h 17.7 km/h 69% 0 mm
10:14 18.7 °C 13.1 °C 1015.5 hPa SW 4.8 km/h 20.9 km/h 70% 0 mm
10:19 19.3 °C 14.2 °C 1015.5 hPa SW 16.1 km/h 20.9 km/h 72% 0 mm
10:24 19.9 °C 13.8 °C 1015.5 hPa SW 9.7 km/h 20.9 km/h 68% 0 mm
10:29 19.4 °C 13.1 °C 1015.5 hPa SW 12.9 km/h 16.1 km/h 67% 0 mm
10:34 19.1 °C 13.1 °C 1015.1 hPa WSW 6.4 km/h 24.1 km/h 68% 0 mm
10:39 19.3 °C 13.5 °C 1015.1 hPa West 8 km/h 24.1 km/h 69% 0 mm
10:44 19.7 °C 13.6 °C 1015.1 hPa SW 9.7 km/h 24.1 km/h 68% 0 mm
10:49 19.8 °C 13.2 °C 1015.1 hPa WSW 9.7 km/h 22.5 km/h 66% 0 mm
10:54 19.7 °C 13.6 °C 1015.1 hPa WSW 8 km/h 16.1 km/h 68% 0 mm
10:59 20.2 °C 13.4 °C 1015.1 hPa WSW 9.7 km/h 24.1 km/h 65% 0 mm
11:04 20.3 °C 13.7 °C 1015.1 hPa SW 9.7 km/h 19.3 km/h 66% 0 mm
11:09 20.2 °C 13.2 °C 1015.1 hPa SSW 9.7 km/h 20.9 km/h 64% 0 mm
11:14 20.8 °C 13.7 °C 1015.1 hPa West 22.5 km/h 22.5 km/h 64% 0 mm
11:19 20.8 °C 13.7 °C 1015.1 hPa WSW 11.3 km/h 22.5 km/h 64% 0 mm
11:24 20.9 °C 13.1 °C 1015.1 hPa WSW 11.3 km/h 22.5 km/h 61% 0 mm
11:29 20.7 °C 13.4 °C 1015.1 hPa SW 9.7 km/h 20.9 km/h 63% 0 mm
11:34 21.1 °C 13.2 °C 1015.1 hPa WSW 9.7 km/h 19.3 km/h 61% 0 mm
11:39 21.1 °C 13.2 °C 1015.1 hPa SW 8 km/h 19.3 km/h 61% 0 mm
11:44 20.9 °C 12.8 °C 1015.1 hPa SW 11.3 km/h 24.1 km/h 60% 0 mm
11:49 20.9 °C 14.1 °C 1015.1 hPa WSW 11.3 km/h 24.1 km/h 65% 0 mm
11:54 21.1 °C 13.7 °C 1015.1 hPa WSW 19.3 km/h 25.7 km/h 63% 0 mm
11:59 20.8 °C 13.5 °C 1015.1 hPa SSW 4.8 km/h 19.3 km/h 63% 0 mm
12:04 20.9 °C 13.4 °C 1015.1 hPa SW 12.9 km/h 27.4 km/h 62% 0 mm
12:09 20.9 °C 13.6 °C 1015.1 hPa SW 14.5 km/h 29 km/h 63% 0 mm
12:14 20.8 °C 13.5 °C 1014.8 hPa SW 11.3 km/h 29 km/h 63% 0 mm
12:19 20.8 °C 12.5 °C 1014.8 hPa WSW 14.5 km/h 20.9 km/h 59% 0 mm
12:24 20.9 °C 13.6 °C 1014.8 hPa WSW 8 km/h 22.5 km/h 63% 0 mm
12:29 20.9 °C 13.3 °C 1014.8 hPa WNW 22.5 km/h 22.5 km/h 62% 0 mm
12:34 20.9 °C 13.6 °C 1014.8 hPa SW 8 km/h 22.5 km/h 63% 0 mm
12:39 20.6 °C 13.1 °C 1014.8 hPa WSW 12.9 km/h 20.9 km/h 62% 0 mm
12:44 20.3 °C 13.1 °C 1014.8 hPa SW 16.1 km/h 22.5 km/h 63% 0 mm
12:49 20.8 °C 13.2 °C 1014.8 hPa WSW 12.9 km/h 25.7 km/h 62% 0 mm
12:54 21.3 °C 12.7 °C 1014.8 hPa WSW 12.9 km/h 25.7 km/h 58% 0 mm
12:59 20.8 °C 12.7 °C 1014.4 hPa WSW 11.3 km/h 24.1 km/h 60% 0 mm
13:04 20.9 °C 13.1 °C 1014.4 hPa SW 20.9 km/h 27.4 km/h 61% 0 mm
13:09 21.3 °C 13.8 °C 1014.4 hPa WSW 12.9 km/h 27.4 km/h 62% 0 mm
13:14 21.1 °C 13.7 °C 1014.4 hPa WNW 9.7 km/h 25.7 km/h 63% 0 mm
13:19 21.1 °C 13.3 °C 1014.1 hPa WSW 25.7 km/h 29 km/h 61% 0 mm
13:24 20.9 °C 14.1 °C 1014.4 hPa SW 20.9 km/h 25.7 km/h 65% 0 mm
13:29 21.3 °C 13.9 °C 1014.1 hPa WSW 16.1 km/h 25.7 km/h 63% 0 mm
13:34 21.3 °C 13.2 °C 1014.4 hPa WSW 19.3 km/h 27.4 km/h 60% 0 mm
13:39 21.2 °C 12.6 °C 1014.1 hPa WSW 14.5 km/h 27.4 km/h 58% 0 mm
13:44 21.2 °C 13.2 °C 1014.1 hPa WSW 14.5 km/h 29 km/h 60% 0 mm
13:49 21.2 °C 12.8 °C 1014.1 hPa WSW 14.5 km/h 35.4 km/h 59% 0 mm
13:54 21.2 °C 12.8 °C 1014.1 hPa SW 16.1 km/h 35.4 km/h 59% 0 mm
13:59 21.6 °C 13.4 °C 1014.1 hPa SW 14.5 km/h 30.6 km/h 60% 0 mm
14:04 21.4 °C 12 °C 1014.1 hPa WSW 12.9 km/h 29 km/h 55% 0 mm
14:09 21.4 °C 12.3 °C 1014.1 hPa WSW 14.5 km/h 30.6 km/h 56% 0 mm
14:14 21.6 °C 12.7 °C 1014.1 hPa WSW 14.5 km/h 30.6 km/h 57% 0 mm
14:19 21.3 °C 13 °C 1013.8 hPa West 11.3 km/h 30.6 km/h 59% 0 mm
14:24 21.9 °C 13.8 °C 1014.1 hPa SW 16.1 km/h 22.5 km/h 60% 0 mm
14:29 22.1 °C 13.7 °C 1014.1 hPa WSW 14.5 km/h 24.1 km/h 59% 0 mm
14:34 21.7 °C 12.2 °C 1013.8 hPa SW 17.7 km/h 27.4 km/h 55% 0 mm
14:39 21.4 °C 11.7 °C 1013.8 hPa WSW 16.1 km/h 32.2 km/h 54% 0 mm
14:44 21.7 °C 13.8 °C 1013.8 hPa WSW 16.1 km/h 32.2 km/h 61% 0 mm
14:49 21.6 °C 13.2 °C 1013.8 hPa South 16.1 km/h 25.7 km/h 59% 0 mm
14:54 21.6 °C 12.7 °C 1013.4 hPa SW 8 km/h 25.7 km/h 57% 0 mm
14:59 21.9 °C 14.1 °C 1013.4 hPa WNW 12.9 km/h 19.3 km/h 61% 0 mm
15:04 21.6 °C 11.8 °C 1013.4 hPa WSW 14.5 km/h 25.7 km/h 54% 0 mm
15:09 21.8 °C 12.9 °C 1013.4 hPa WSW 14.5 km/h 25.7 km/h 57% 0 mm
15:14 21.9 °C 13 °C 1013.4 hPa SW 12.9 km/h 29 km/h 57% 0 mm
15:19 21.6 °C 13 °C 1013.4 hPa SW 14.5 km/h 33.8 km/h 58% 0 mm
15:24 21.3 °C 12.7 °C 1013.4 hPa SW 16.1 km/h 35.4 km/h 58% 0 mm
15:29 21.7 °C 13.1 °C 1013.8 hPa WSW 14.5 km/h 35.4 km/h 58% 0 mm
15:34 21.5 °C 12.6 °C 1013.8 hPa West 12.9 km/h 29 km/h 57% 0 mm
15:39 21.4 °C 12.8 °C 1013.8 hPa SW 12.9 km/h 29 km/h 58% 0 mm
15:44 21.4 °C 13.3 °C 1013.8 hPa South 11.3 km/h 29 km/h 60% 0 mm
15:49 21.7 °C 13.3 °C 1013.8 hPa SW 27.4 km/h 30.6 km/h 59% 0 mm
15:54 21.7 °C 13.1 °C 1014.1 hPa West 20.9 km/h 37 km/h 58% 0 mm
15:59 21.4 °C 13.3 °C 1014.1 hPa WSW 16.1 km/h 37 km/h 60% 0 mm
16:04 21.6 °C 13.2 °C 1014.1 hPa WSW 16.1 km/h 35.4 km/h 59% 0 mm
16:09 21.3 °C 13 °C 1014.1 hPa WSW 16.1 km/h 33.8 km/h 59% 0 mm
16:14 20.9 °C 13.1 °C 1014.1 hPa WSW 17.7 km/h 33.8 km/h 61% 0 mm
16:19 20.9 °C 12.1 °C 1014.1 hPa WSW 17.7 km/h 37 km/h 57% 0 mm
16:24 20.7 °C 12.7 °C 1014.1 hPa SW 20.9 km/h 35.4 km/h 60% 0 mm
16:29 20.5 °C 12.7 °C 1014.1 hPa SW 22.5 km/h 32.2 km/h 61% 0 mm
16:34 20.5 °C 12.9 °C 1014.1 hPa WSW 19.3 km/h 38.6 km/h 62% 0 mm
16:39 20.4 °C 13.1 °C 1013.8 hPa SW 17.7 km/h 38.6 km/h 63% 0 mm
16:44 20.8 °C 13.5 °C 1013.8 hPa WSW 12.9 km/h 30.6 km/h 63% 0 mm
16:49 20.7 °C 13.1 °C 1013.8 hPa WSW 14.5 km/h 33.8 km/h 62% 0 mm
16:54 20.6 °C 13 °C 1013.8 hPa West 9.7 km/h 32.2 km/h 62% 0 mm
16:59 20.2 °C 12.9 °C 1013.8 hPa WSW 17.7 km/h 27.4 km/h 63% 0 mm
17:04 20 °C 13 °C 1013.8 hPa WSW 16.1 km/h 35.4 km/h 64% 0 mm
17:14 20.6 °C 12.8 °C 1013.4 hPa WSW 14.5 km/h 27.4 km/h 61% 0 mm
17:19 20.5 °C 13.2 °C 1013.4 hPa SW 14.5 km/h 24.1 km/h 63% 0 mm
17:24 20.8 °C 13.1 °C 1013.4 hPa SSW 19.3 km/h 25.7 km/h 61% 0 mm
17:29 20.5 °C 12.9 °C 1013.4 hPa WSW 19.3 km/h 25.7 km/h 62% 0 mm
17:34 20.6 °C 13.1 °C 1013.4 hPa West 14.5 km/h 25.7 km/h 62% 0 mm
17:39 20.2 °C 12.7 °C 1013.4 hPa WSW 14.5 km/h 35.4 km/h 62% 0 mm
17:44 20.3 °C 13.5 °C 1013.4 hPa West 14.5 km/h 35.4 km/h 65% 0 mm
17:49 20.6 °C 13.5 °C 1013.4 hPa West 17.7 km/h 24.1 km/h 64% 0 mm
17:54 20.6 °C 13.5 °C 1013.4 hPa WSW 9.7 km/h 25.7 km/h 64% 0 mm
17:59 20.2 °C 12.7 °C 1013.4 hPa SW 17.7 km/h 29 km/h 62% 0 mm
18:04 19.8 °C 13 °C 1013.4 hPa WSW 11.3 km/h 19.3 km/h 65% 0 mm
18:09 19.9 °C 13.1 °C 1013.4 hPa WSW 14.5 km/h 35.4 km/h 65% 0 mm
18:14 20 °C 13 °C 1013.1 hPa WSW 19.3 km/h 32.2 km/h 64% 0 mm
18:19 19.8 °C 12.8 °C 1013.1 hPa SW 16.1 km/h 25.7 km/h 64% 0 mm
18:24 19.7 °C 12.9 °C 1013.1 hPa WSW 11.3 km/h 22.5 km/h 65% 0 mm
18:29 19.6 °C 12.8 °C 1013.1 hPa WSW 14.5 km/h 29 km/h 65% 0 mm
18:34 19.3 °C 13 °C 1013.4 hPa WSW 16.1 km/h 29 km/h 67% 0 mm
18:39 19.6 °C 13.1 °C 1013.4 hPa WSW 12.9 km/h 25.7 km/h 66% 0 mm
18:44 19.6 °C 12.8 °C 1013.4 hPa WSW 6.4 km/h 30.6 km/h 65% 0 mm
18:49 19.7 °C 12.4 °C 1013.4 hPa West 17.7 km/h 25.7 km/h 63% 0 mm
18:54 19.4 °C 12.2 °C 1013.4 hPa WSW 20.9 km/h 24.1 km/h 63% 0 mm
18:59 19.4 °C 12.4 °C 1013.4 hPa WSW 16.1 km/h 33.8 km/h 64% 0 mm
19:04 19.3 °C 12.3 °C 1013.4 hPa WSW 16.1 km/h 33.8 km/h 64% 0 mm
19:09 19.1 °C 12.4 °C 1013.4 hPa West 17.7 km/h 27.4 km/h 65% 0 mm
19:14 19.1 °C 12.6 °C 1013.4 hPa SSW 11.3 km/h 29 km/h 66% 0 mm
19:19 19.1 °C 12.6 °C 1013.4 hPa WSW 8 km/h 27.4 km/h 66% 0 mm
19:24 19.1 °C 12.3 °C 1013.1 hPa SSW 6.4 km/h 25.7 km/h 65% 0 mm
19:29 19.1 °C 12.4 °C 1013.4 hPa SW 12.9 km/h 25.7 km/h 65% 0 mm
19:34 19.1 °C 12.3 °C 1013.4 hPa SW 12.9 km/h 25.7 km/h 65% 0 mm
19:39 18.9 °C 12.2 °C 1013.4 hPa WSW 12.9 km/h 35.4 km/h 65% 0 mm
19:44 18.7 °C 12.2 °C 1013.4 hPa WSW 16.1 km/h 35.4 km/h 66% 0 mm
19:49 18.6 °C 11.9 °C 1013.4 hPa West 8 km/h 22.5 km/h 65% 0 mm
19:54 18.6 °C 11.6 °C 1013.4 hPa SW 19.3 km/h 27.4 km/h 64% 0 mm
19:59 18.5 °C 11.6 °C 1013.4 hPa SW 12.9 km/h 32.2 km/h 64% 0 mm
20:04 18.5 °C 11.6 °C 1013.4 hPa SSW 9.7 km/h 24.1 km/h 64% 0 mm
20:09 18.4 °C 11.7 °C 1013.4 hPa West 8 km/h 17.7 km/h 65% 0 mm
20:14 18.4 °C 11.7 °C 1013.4 hPa West 6.4 km/h 20.9 km/h 65% 0 mm
20:19 18.4 °C 11.5 °C 1013.4 hPa SW 6.4 km/h 22.5 km/h 64% 0 mm
20:24 18.4 °C 11.4 °C 1013.4 hPa West 6.4 km/h 19.3 km/h 64% 0 mm
20:29 18.4 °C 11.2 °C 1013.4 hPa WSW 9.7 km/h 24.1 km/h 63% 0 mm
20:34 18 °C 9.3 °C 1013.8 hPa West 11.3 km/h 25.7 km/h 57% 0 mm
20:39 17.5 °C 9.2 °C 1013.8 hPa WNW 11.3 km/h 27.4 km/h 58% 0 mm
20:44 17.1 °C 8.5 °C 1013.8 hPa NW 9.7 km/h 27.4 km/h 57% 0 mm
20:49 16.9 °C 8.6 °C 1013.8 hPa NW 9.7 km/h 20.9 km/h 58% 0 mm
20:54 16.8 °C 8.4 °C 1013.8 hPa WNW 6.4 km/h 16.1 km/h 58% 0 mm
20:59 16.6 °C 8.5 °C 1013.8 hPa WNW 8 km/h 16.1 km/h 59% 0 mm
21:04 16.3 °C 8.6 °C 1013.8 hPa NW 4.8 km/h 11.3 km/h 60% 0 mm
21:09 16.3 °C 8.7 °C 1013.8 hPa West 4.8 km/h 11.3 km/h 61% 0 mm
21:14 16.2 °C 8.6 °C 1013.8 hPa West 6.4 km/h 9.7 km/h 61% 0 mm
21:19 16.1 °C 8.6 °C 1013.8 hPa WNW 1.6 km/h 6.4 km/h 61% 0 mm
21:24 15.9 °C 8.6 °C 1013.8 hPa West 1.6 km/h 6.4 km/h 62% 0 mm
21:29 15.8 °C 8.5 °C 1013.8 hPa West 1.6 km/h 6.4 km/h 62% 0 mm
21:34 15.7 °C 8.7 °C 1014.1 hPa West 1.6 km/h 4.8 km/h 63% 0 mm
21:39 15.7 °C 8.7 °C 1014.1 hPa West 1.6 km/h 6.4 km/h 63% 0 mm
21:44 15.6 °C 8.8 °C 1014.1 hPa WSW 3.2 km/h 8 km/h 64% 0 mm
21:49 15.7 °C 8.9 °C 1014.1 hPa West 3.2 km/h 6.4 km/h 64% 0 mm
21:54 15.6 °C 8.8 °C 1014.1 hPa Calm   4.8 km/h 64% 0 mm
21:59 15.4 °C 8.6 °C 1014.1 hPa West 1.6 km/h 4.8 km/h 64% 0 mm
22:04 15.2 °C 8.7 °C 1014.1 hPa Calm     65% 0 mm
22:09 15.1 °C 8.5 °C 1014.1 hPa Calm     65% 0 mm
22:14 14.8 °C 8.5 °C 1014.1 hPa Calm   4.8 km/h 66% 0 mm
22:19 14.6 °C 8.7 °C 1013.8 hPa Calm   4.8 km/h 68% 0 mm
22:24 14.4 °C 8.4 °C 1014.1 hPa Calm     67% 0 mm
22:29 14.4 °C 8.4 °C 1014.1 hPa Calm   1.6 km/h 67% 0 mm
22:34 14.4 °C 8.4 °C 1013.8 hPa Calm   1.6 km/h 67% 0 mm
22:39 14.3 °C 8.5 °C 1014.1 hPa Calm     68% 0 mm
22:44 14.1 °C 8.4 °C 1014.1 hPa Calm     69% 0 mm
22:49 13.7 °C 8.3 °C 1014.1 hPa Calm     70% 0 mm
22:54 13.6 °C 8.4 °C 1014.1 hPa Calm     71% 0 mm
22:59 13.6 °C 8.6 °C 1014.1 hPa Calm     72% 0 mm
23:04 13.5 °C 8.6 °C 1014.1 hPa Calm     72% 0 mm
23:09 13.4 °C 8.4 °C 1014.1 hPa Calm     72% 0 mm
23:14 13.4 °C 8.7 °C 1014.1 hPa Calm     73% 0 mm
23:19 13.5 °C 8.6 °C 1014.1 hPa Calm     72% 0 mm
23:24 13.6 °C 8.8 °C 1013.8 hPa Calm     73% 0 mm
23:29 13.6 °C 8.8 °C 1013.8 hPa Calm     73% 0 mm
23:34 13.6 °C 8.8 °C 1013.8 hPa Calm     73% 0 mm
23:39 13.6 °C 8.8 °C 1013.8 hPa Calm     73% 0 mm
23:44 13.5 °C 8.8 °C 1013.8 hPa Calm     73% 0 mm
23:49 13.6 °C 9.1 °C 1013.8 hPa Calm     74% 0 mm
23:54 13.8 °C 9.2 °C 1013.8 hPa Calm     74% 0 mm
23:59 13.9 °C 9.4 °C 1013.8 hPa Calm     74% 0 mm
Buffalo, New York, USA
Compliments of Weather Underground - 2.5 mb